KD8AIF Weather Reports


time (UTC)temp
F
wind
direction
speed
knots
gust
knots
rain 1hr
in
rain 24hr
in
rain mn
in
humidity
%
barometer
mb
20260509091004 51 113 0.9 1.7 0.00 0.00 0.00 83 980.0
20260509085004 52 132 0.9 2.6 0.00 0.00 0.00 82 980.3
20260509084004 52 136 0.0 1.7 0.00 0.00 0.00 80 980.0
20260509083003 51 116 0.0 1.7 0.00 0.00 0.00 78 980.2
20260509082003 51 109 0.0 1.7 0.00 0.00 0.00 76 980.4
20260509081004 51 97 0.0 1.7 0.00 0.00 0.00 74 980.5
20260509080004 51 85 0.0 1.7 0.00 0.00 0.00 73 980.7
20260509075004 51 77 0.0 1.7 0.00 0.00 0.00 70 981.2
20260509074003 51 101 0.9 2.6 0.00 0.00 0.00 67 981.2
20260509073003 51 104 0.9 2.6 0.00 0.00 0.00 64 981.2
20260509072004 52 161 0.9 2.6 0.00 0.00 0.00 62 981.3
20260509071004 52 135 1.7 4.3 0.00 0.00 0.00 61 981.3
20260509065004 52 120 0.9 2.6 0.00 0.00 0.00 55 981.4
20260509063003 52 108 0.9 2.6 0.00 0.00 0.00 46 981.7
20260509062004 51 107 0.0 1.7 0.00 0.00 0.00 41 981.9
20260509061004 51 92 0.0 1.7 0.00 0.00 0.00 39 982.0
20260509060005 50 92 0.0 1.7 0.00 0.00 0.00 40 982.2
20260509055004 50 107 0.0 1.7 0.00 0.00 0.00 40 982.3
20260509054003 50 88 0.0 0.9 0.00 0.00 0.00 40 982.5
20260509053004 50 134 0.0 1.7 0.00 0.00 0.00 40 982.4
20260509051004 50 96 0.0 0.9 0.00 0.00 0.00 40 982.5
20260509050004 50 106 0.0 0.9 0.00 0.00 0.00 40 982.6
20260509045004 49 121 0.0 0.9 0.00 0.00 0.00 41 982.8
20260509044004 49 111 0.0 0.9 0.00 0.00 0.00 41 982.8
20260509043005 48 105 0.0 0.9 0.00 0.00 0.00 45 983.1
20260509042004 47 106 0.0 0.9 0.00 0.00 0.00 46 983.2
20260509040005 48 94 0.9 1.7 0.00 0.00 0.00 47 983.3
20260509035004 48 97 0.9 0.9 0.00 0.00 0.00 51 983.7
20260509034004 49 116 0.0 0.9 0.00 0.00 0.00 49 983.7
20260509033004 49 132 0.0 1.7 0.00 0.00 0.00 48 983.8
20260509031004 49 96 0.0 1.7 0.00 0.00 0.00 45 984.0
20260509024004 50 71 0.0 0.9 0.00 0.00 0.00 47 984.5
20260509023004 50 77 0.0 0.9 0.00 0.00 0.00 47 984.6
20260509022004 51 68 0.0 0.9 0.00 0.00 0.00 45 984.6
20260509021003 51 63 0.0 0.9 0.00 0.00 0.00 44 984.5
20260509015004 53 87 0.0 0.9 0.00 0.00 0.00 44 984.1
20260509014004 53 78 0.0 0.9 0.00 0.00 0.00 43 984.4
20260509013004 54 21 0.0 0.9 0.00 0.00 0.00 40 984.4
20260509012003 55 99 0.0 0.9 0.00 0.00 0.00 38 984.3
20260509011004 56 231 0.0 0.9 0.00 0.00 0.00 36 984.3
20260509005004 58 67 0.0 1.7 0.00 0.00 0.00 30 984.3
20260509004004 59 93 0.0 1.7 0.00 0.00 0.00 28 984.1
20260509003004 60 204 0.9 2.6 0.00 0.00 0.00 26 984.0
20260509002004 61 176 0.9 2.6 0.00 0.00 0.00 26 984.0
20260509001004 61 151 0.0 6.1 0.00 0.00 0.00 26 984.0
20260509000004 62 183 1.7 2.6 0.00 0.00 0.00 25 984.1
20260508234004 63 208 1.7 5.2 0.00 0.00 0.00 25 984.0
20260508233004 63 160 1.7 7.0 0.00 0.00 0.00 25 983.5
20260508232004 64 202 3.5 7.0 0.00 0.00 0.00 25 983.3
20260508231004 64 182 1.7 7.0 0.00 0.00 0.00 24 983.2
20260508230004 64 242 1.7 5.2 0.00 0.00 0.00 25 983.5
20260508223003 64 356 1.7 6.1 0.00 0.00 0.00 24 983.4
20260508222004 64 273 2.6 7.0 0.00 0.00 0.00 25 983.5
20260508221004 64 232 1.7 7.0 0.00 0.00 0.00 24 983.5
20260508215004 64 314 2.6 6.1 0.00 0.00 0.00 24 983.4
20260508214004 64 240 1.7 5.2 0.00 0.00 0.00 25 983.2
20260508212003 64 325 1.7 7.0 0.00 0.00 0.00 26 983.3
20260508211004 64 254 1.7 6.1 0.00 0.00 0.00 26 983.2
20260508210004 64 271 4.3 7.8 0.00 0.00 0.00 24 983.4
20260508205004 64 242 1.7 7.0 0.00 0.00 0.00 24 983.2
20260508204004 64 270 3.5 7.8 0.00 0.00 0.00 25 983.4
20260508203004 64 250 1.7 7.0 0.00 0.00 0.00 24 983.4
20260508202004 64 215 1.7 7.0 0.00 0.00 0.00 24 983.4
20260508201004 64 329 0.9 7.0 0.00 0.00 0.00 26 983.4
20260508200004 64 269 1.7 7.8 0.00 0.00 0.00 24 983.5
20260508194004 64 255 2.6 8.7 0.00 0.00 0.00 24 983.7
20260508193004 64 331 1.7 7.0 0.00 0.00 0.00 26 983.5
20260508192004 63 204 2.6 7.0 0.00 0.00 0.00 25 983.9
20260508191004 62 239 2.6 7.0 0.00 0.00 0.00 24 984.2
20260508190004 63 163 1.7 7.0 0.00 0.00 0.00 24 983.8
20260508185003 64 258 1.7 6.1 0.00 0.00 0.00 25 984.3
20260508183004 63 316 0.9 6.1 0.00 0.00 0.00 26 984.3
20260508182004 63 225 3.5 7.8 0.00 0.00 0.00 25 984.5
20260508181004 62 206 2.6 10.4 0.00 0.00 0.00 27 985.0
20260508180004 62 298 1.7 6.1 0.00 0.00 0.00 28 984.5
20260508175004 62 199 0.9 8.7 0.00 0.00 0.00 28 984.4
20260508174004 62 308 2.6 7.8 0.00 0.00 0.00 28 984.6
20260508173004 61 6 2.6 7.0 0.00 0.00 0.00 29 985.3
20260508172003 62 289 1.7 6.1 0.00 0.00 0.00 30 984.9
20260508171004 62 270 1.7 7.0 0.00 0.00 0.00 30 984.8
20260508170004 62 23 1.7 6.1 0.00 0.00 0.00 29 984.9
20260508163004 60 227 1.7 7.0 0.00 0.00 0.00 32 985.5
20260508162004 60 129 2.6 7.0 0.00 0.00 0.00 31 985.4
20260508161004 59 163 0.9 5.2 0.00 0.00 0.00 30 985.5
20260508160004 59 121 0.9 7.0 0.00 0.00 0.00 30 985.3
20260508155004 59 317 1.7 7.8 0.00 0.00 0.00 32 985.6
20260508153004 59 151 0.9 5.2 0.00 0.00 0.00 33 985.5
20260508152004 58 119 1.7 7.8 0.00 0.00 0.00 37 985.7
20260508151004 58 227 2.6 5.2 0.00 0.00 0.00 33 985.8
20260508150004 58 315 1.7 6.1 0.00 0.00 0.00 43 985.8
20260508145005 57 211 0.9 5.2 0.00 0.00 0.00 38 985.9
20260508144004 57 263 1.7 6.1 0.00 0.00 0.00 39 985.8
20260508143004 56 187 1.7 7.0 0.00 0.00 0.00 39 985.9
20260508142004 56 214 0.9 4.3 0.00 0.00 0.00 43 985.9
20260508141004 56 155 1.7 4.3 0.00 0.00 0.00 46 986.0
20260508140004 55 161 0.9 2.6 0.00 0.00 0.00 50 985.9
20260508135004 55 129 0.9 6.1 0.00 0.00 0.00 52 985.9
20260508134004 54 105 0.9 6.1 0.00 0.00 0.00 55 985.9
20260508133004 52 129 0.9 4.3 0.00 0.00 0.00 57 985.9
20260508132003 52 100 0.9 2.6 0.00 0.00 0.00 60 986.5
20260508130004 50 42 0.9 2.6 0.00 0.00 0.00 62 986.9
20260508125004 49 170 0.9 2.6 0.00 0.00 0.00 65 986.9
20260508124004 48 25 0.9 2.6 0.00 0.00 0.00 66 987.1
20260508120003 39 103 0.0 0.9 0.00 0.00 0.00 90 987.1
20260508115003 38 67 0.0 1.7 0.00 0.00 0.00 94 987.9
20260508114004 37 75 0.0 0.9 0.00 0.00 0.00 94 988.1
20260508113004 36 49 0.0 0.9 0.00 0.00 0.00 95 987.9
20260508112004 35 99 0.0 0.9 0.00 0.00 0.00 95 988.1
20260508111004 35 79 0.0 0.9 0.00 0.00 0.00 94 988.5
20260508110004 35 82 0.0 0.9 0.00 0.00 0.00 94 988.5
20260508105004 34 39 0.0 0.9 0.00 0.00 0.00 94 988.4
20260508103004 35 358 0.0 1.7 0.00 0.00 0.00 93 988.3
20260508102004 35 55 0.0 0.9 0.00 0.00 0.00 92 988.4
20260508101004 35 4 0.0 0.9 0.00 0.00 0.00 92 988.3
20260508100003 35 41 0.0 0.9 0.00 0.00 0.00 92 988.6
20260508095004 36 44 0.0 0.0 0.00 0.00 0.00 91 988.6
20260508094004 36 39 0.0 1.7 0.00 0.00 0.00 90 988.5
20260508093003 36 37 0.0 0.9 0.00 0.00 0.00 90 988.6
20260508092004 36 31 0.0 1.7 0.00 0.00 0.00 89 988.4